TimeCDT,TemperatureF,Dew PointF,Humidity,Sea Level PressureIn,VisibilityMPH,Wind Direction,Wind SpeedMPH,Gust SpeedMPH,PrecipitationIn,Events,Conditions,WindDirDegrees,DateUTC
12:53 AM,78.1,72.0,81,29.90,10.0,SSE,8.1,-,N/A,,Clear,150,2013-10-04 05:53:00
1:53 AM,78.1,73.0,84,29.90,10.0,SSE,9.2,-,N/A,,Clear,150,2013-10-04 06:53:00
2:53 AM,79.0,73.0,82,29.89,9.0,SSE,8.1,-,N/A,,Partly Cloudy,150,2013-10-04 07:53:00
3:53 AM,79.0,72.0,79,29.88,9.0,SSE,9.2,-,N/A,,Clear,150,2013-10-04 08:53:00
4:53 AM,79.0,72.0,79,29.88,10.0,SSE,6.9,-,N/A,,Partly Cloudy,160,2013-10-04 09:53:00
5:53 AM,78.1,71.1,79,29.89,10.0,SSE,6.9,-,N/A,,Clear,160,2013-10-04 10:53:00
6:53 AM,78.1,72.0,81,29.90,10.0,SSE,6.9,-,N/A,,Clear,150,2013-10-04 11:53:00
7:53 AM,79.0,73.0,82,29.90,8.0,SSE,4.6,-,N/A,,Partly Cloudy,160,2013-10-04 12:53:00
8:53 AM,82.0,73.0,74,29.91,8.0,South,8.1,-,N/A,,Clear,180,2013-10-04 13:53:00
9:53 AM,84.0,71.1,65,29.93,8.0,South,6.9,-,N/A,,Clear,180,2013-10-04 14:53:00
10:53 AM,84.9,72.0,65,29.93,10.0,SSE,9.2,-,N/A,,Partly Cloudy,160,2013-10-04 15:53:00
11:53 AM,87.1,73.0,63,29.93,10.0,SE,11.5,-,N/A,,Partly Cloudy,140,2013-10-04 16:53:00
12:53 PM,87.1,73.0,63,29.92,10.0,South,10.4,-,N/A,,Partly Cloudy,170,2013-10-04 17:53:00
1:53 PM,86.0,73.0,65,29.90,10.0,SSE,8.1,17.3,N/A,,Partly Cloudy,150,2013-10-04 18:53:00
2:53 PM,87.1,72.0,61,29.89,10.0,South,11.5,-,N/A,,Clear,170,2013-10-04 19:53:00
3:53 PM,87.1,73.0,63,29.88,10.0,SSE,11.5,-,N/A,,Clear,150,2013-10-04 20:53:00
4:53 PM,86.0,72.0,63,29.88,10.0,SSE,12.7,-,N/A,,Clear,150,2013-10-04 21:53:00
5:53 PM,84.9,72.0,65,29.88,9.0,SE,11.5,-,N/A,,Clear,140,2013-10-04 22:53:00
6:53 PM,81.0,72.0,74,29.89,9.0,SE,9.2,-,N/A,,Clear,140,2013-10-04 23:53:00
7:53 PM,79.0,73.0,82,29.89,9.0,SE,5.8,-,N/A,,Clear,130,2013-10-05 00:53:00
8:53 PM,78.1,73.0,84,29.90,9.0,SE,6.9,-,N/A,,Clear,130,2013-10-05 01:53:00
9:53 PM,77.0,73.0,88,29.91,9.0,SE,5.8,-,N/A,,Clear,130,2013-10-05 02:53:00
10:53 PM,78.1,73.9,87,29.92,9.0,North,-9999.0,-,N/A,,Clear,0,2013-10-05 03:53:00
11:53 PM,77.0,73.9,90,29.91,8.0,SE,5.8,-,N/A,,Clear,140,2013-10-05 04:53:00